Starlink 33545

operational
NORAD ID: 62101 Int'l Des: 2024-220 Owner: SPXS Country: US Constellation: starlink
LEOCIRCULAR

About Starlink 33545

Description loading...

Live Position

Loading 3D Globe...

Upcoming Passes

Altitude History

Altitude vs Time

uPlot chart will show altitude changes over time

Two-Line Element Set

1 62101U 24220P 25304.48295507 .00028933 00000-0 10556-2 0 9998
2 62101 43.0031 214.9872 0003035 278.1535 81.8972 15.27614662 53269
Epoch: Oct 31, 2025 • Age: 9 hours

Current Status

Altitude 487.1 km
Velocity 7.62 km/s
Sub-Earth Point -23.72°S, 168.28°W
Launch Date Nov 25, 2024
Age 0.9 years
Type internet

Technical Details

Classification Payload
Mass 530.00 kg
Dry Mass 500.00 kg
Total Mass 530.00 kg
Length 0.30 m
Diameter 4.10 m
Span 29.00 m
Shape Box + pan
Manufacturer SPXS
Bus Type Starlink V2MO
Phase Status In Orbit
Owner/State SPXS/US

Large Constellations

Loading constellations...